Погода в Заостровье

Россия / Санкт-Петербург и Ленинградская область     60°51′41″N   30°24′05″E
темп.,
°C
ветер,
м/с
пор.,
м/с
влажн.,
%
обл.,
%
осадки,
мм/ч
давл.,
гПа
погр.,
м
28 июля, ср
ср2800:00+19ююв336633 0.0 101525
03:00+17ю2379100 0.0 101430
06:00+17вюв3381100 0.0 101359
09:00+18вюв4577100 0.0 1012153
12:00+19вюв3472100 0.1 1011201
15:00+18юв2284100 1.4 1009111
18:00+18с1187100 1.9 100813
21:00+17вюв349497 2.2 100775
29 июля, чт
чт2900:00+16в349569 0.1 100665
03:00+16юз229516 0.3 100412
06:00+16зюз1195100 0.5 100336
09:00+19юз3688100 2.0 1002250
12:00+20зюз51078100 2.1 1002428
15:00+19юз497798 2.1 1001351
18:00+22зюз59585 0.1 999719
21:00+20зюз511645 0.1 999369
30 июля, пт
пт3000:00+18зюз513725 0.0 999339
03:00+17юз5118382 0.0 999353
06:00+16юз410885 0.0 999355
09:00+19юз6965100 0.0 999613
12:00+21юз795196 0.0 998975
15:00+20юз7105793 0.0 998749
18:00+20юз610550 0.2 998854
21:00+19ююз51057100 0.2 996575
31 июля, сб
сб3100:00+15ю512865 0.1 996341
03:00+14ю51289100 0.1 995409
06:00+14ю61190100 0.2 994677
09:00+15ююв478999 0.4 993472
12:00+18з4671100 0.3 995540
15:00+19з586129 0.4 997686
18:00+20з465732 0.0 998766
21:00+18зюз46700 0.0 999121
1 августа, вс
вс100:00+15юз38880 0.0 1000148
03:00+15юз369399 0.0 1000111
06:00+15ю3689100 0.5 999130
09:00+17ююз478894 2.1 998342
12:00+21ююз685638 1.6 997889
15:00+20юз6106791 1.8 998630
18:00+17юз7148784 0.9 999692
21:00+17юз7148426 0.9 999557